| time (UTC) | temp F | wind direction | speed knots | gust knots | rain 1hr in | rain 24hr in | rain mn in | humidity % | barometer mb |
| 20260510072530 | 49 | 179 | 1.7 | 5.2 | 0.00 | 0.37 | 0.00 | 95 | 1009.2 |
| 20260510072020 | 49 | 157 | 0.9 | 4.3 | 0.00 | 0.37 | 0.00 | 95 | 1009.3 |
| 20260510071519 | 48 | 169 | 1.7 | 5.2 | 0.00 | 0.37 | 0.00 | 95 | 1009.2 |
| 20260510071019 | 48 | 149 | 2.6 | 4.3 | 0.00 | 0.37 | 0.00 | 95 | 1009.3 |
| 20260510070520 | 48 | 160 | 2.6 | 4.3 | 0.00 | 0.37 | 0.00 | 95 | 1009.4 |
| 20260510070019 | 48 | 119 | 0.9 | 2.6 | 0.00 | 0.37 | 0.00 | 95 | 1009.6 |
| 20260510065520 | 48 | 147 | 0.0 | 1.7 | 0.00 | 0.40 | 0.00 | 95 | 1010.0 |
| 20260510065019 | 48 | 203 | 0.9 | 0.9 | 0.00 | 0.40 | 0.00 | 95 | 1010.2 |
| 20260510064519 | 48 | 238 | 0.0 | 1.7 | 0.00 | 0.40 | 0.00 | 95 | 1010.3 |
| 20260510064019 | 48 | 238 | 0.9 | 1.7 | 0.00 | 0.40 | 0.00 | 94 | 1010.3 |
| 20260510063520 | 48 | 236 | 0.9 | 2.6 | 0.00 | 0.40 | 0.00 | 94 | 1010.3 |
| 20260510063030 | 48 | 238 | 1.7 | 2.6 | 0.00 | 0.40 | 0.00 | 94 | 1010.4 |
| 20260510062519 | 48 | 235 | 0.9 | 4.3 | 0.00 | 0.40 | 0.00 | 94 | 1010.3 |
| 20260510062019 | 48 | 230 | 2.6 | 4.3 | 0.00 | 0.40 | 0.00 | 94 | 1010.3 |
| 20260510061519 | 48 | 219 | 2.6 | 4.3 | 0.00 | 0.40 | 0.00 | 94 | 1010.4 |
| 20260510061021 | 48 | 226 | 2.6 | 3.5 | 0.00 | 0.40 | 0.00 | 94 | 1010.3 |
| 20260510060519 | 48 | 225 | 0.9 | 6.1 | 0.00 | 0.40 | 0.00 | 94 | 1010.4 |
| 20260510060030 | 48 | 227 | 3.5 | 7.0 | 0.00 | 0.40 | 0.00 | 94 | 1010.4 |
| 20260510055519 | 48 | 226 | 4.3 | 7.0 | 0.00 | 0.42 | 0.00 | 95 | 1010.5 |
| 20260510055019 | 48 | 217 | 2.6 | 5.2 | 0.00 | 0.42 | 0.00 | 95 | 1010.6 |
| 20260510054530 | 48 | 260 | 1.7 | 7.0 | 0.00 | 0.42 | 0.00 | 95 | 1010.5 |
| 20260510054019 | 48 | 311 | 2.6 | 6.1 | 0.00 | 0.42 | 0.00 | 95 | 1010.6 |
| 20260510053520 | 48 | 244 | 1.7 | 4.3 | 0.00 | 0.42 | 0.00 | 95 | 1009.9 |
| 20260510053020 | 48 | 236 | 1.7 | 4.3 | 0.00 | 0.42 | 0.00 | 95 | 1009.7 |
| 20260510052519 | 47 | 237 | 3.5 | 4.3 | 0.00 | 0.42 | 0.00 | 95 | 1009.8 |
| 20260510052020 | 47 | 226 | 0.9 | 3.5 | 0.00 | 0.42 | 0.00 | 95 | 1009.8 |
| 20260510051530 | 47 | 277 | 1.7 | 3.5 | 0.00 | 0.42 | 0.00 | 95 | 1009.7 |
| 20260510051020 | 47 | 191 | 1.7 | 4.3 | 0.00 | 0.42 | 0.00 | 94 | 1009.7 |
| 20260510050519 | 47 | 242 | 0.9 | 4.3 | 0.00 | 0.42 | 0.00 | 94 | 1009.8 |
| 20260510050020 | 48 | 236 | 2.6 | 4.3 | 0.00 | 0.42 | 0.00 | 94 | 1009.9 |
| 20260510045519 | 48 | 224 | 2.6 | 5.2 | 0.00 | 0.43 | 0.00 | 94 | 1009.8 |
| 20260510045030 | 48 | 218 | 3.5 | 5.2 | 0.00 | 0.43 | 0.00 | 94 | 1009.8 |
| 20260510044532 | 48 | 231 | 2.6 | 5.2 | 0.00 | 0.43 | 0.00 | 94 | 1009.9 |
| 20260510044019 | 48 | 285 | 1.7 | 4.3 | 0.00 | 0.43 | 0.00 | 94 | 1009.8 |
| 20260510043520 | 48 | 273 | 2.6 | 4.3 | 0.00 | 0.43 | 0.00 | 94 | 1009.7 |
| 20260510043031 | 48 | 246 | 1.7 | 3.5 | 0.00 | 0.43 | 0.00 | 94 | 1009.5 |
| 20260510042520 | 48 | 269 | 2.6 | 3.5 | 0.00 | 0.43 | 0.00 | 94 | 1009.3 |
| 20260510042019 | 48 | 262 | 1.7 | 3.5 | 0.00 | 0.43 | 0.00 | 94 | 1009.1 |
| 20260510041530 | 48 | 278 | 1.7 | 3.5 | 0.00 | 0.43 | 0.00 | 94 | 1009.1 |
| 20260510041020 | 48 | 276 | 0.9 | 4.3 | 0.00 | 0.43 | 0.00 | 94 | 1009.0 |
| 20260510040519 | 48 | 233 | 1.7 | 4.3 | 0.00 | 0.43 | 0.00 | 94 | 1009.0 |
| 20260510040020 | 48 | 214 | 1.7 | 4.3 | 0.00 | 0.43 | 0.00 | 94 | 1009.0 |
| 20260510035520 | 48 | 233 | 2.6 | 3.5 | 0.00 | 0.43 | 0.43 | 94 | 1009.2 |
| 20260510035019 | 48 | 229 | 1.7 | 5.2 | 0.00 | 0.43 | 0.43 | 93 | 1009.1 |
| 20260510034520 | 48 | 247 | 2.6 | 5.2 | 0.00 | 0.43 | 0.43 | 94 | 1009.1 |
| 20260510034020 | 48 | 200 | 1.7 | 5.2 | 0.00 | 0.43 | 0.43 | 94 | 1009.0 |
| 20260510033520 | 48 | 247 | 3.5 | 5.2 | 0.00 | 0.43 | 0.43 | 94 | 1009.0 |
| 20260510033021 | 48 | 233 | 2.6 | 6.1 | 0.00 | 0.43 | 0.43 | 93 | 1009.1 |
| 20260510032532 | 48 | 237 | 4.3 | 6.1 | 0.00 | 0.43 | 0.43 | 94 | 1009.0 |
| 20260510032020 | 48 | 220 | 3.5 | 6.1 | 0.00 | 0.43 | 0.43 | 94 | 1009.1 |
| 20260510031520 | 48 | 246 | 3.5 | 7.8 | 0.00 | 0.43 | 0.43 | 93 | 1009.0 |
| 20260510031019 | 48 | 229 | 3.5 | 7.8 | 0.00 | 0.43 | 0.43 | 93 | 1009.1 |
| 20260510030520 | 48 | 238 | 3.5 | 7.8 | 0.00 | 0.43 | 0.43 | 93 | 1009.0 |
| 20260510030020 | 48 | 221 | 3.5 | 7.8 | 0.00 | 0.43 | 0.43 | 93 | 1008.9 |
| 20260510025520 | 49 | 254 | 1.7 | 4.3 | 0.00 | 0.43 | 0.43 | 93 | 1009.0 |
| 20260510025020 | 49 | 240 | 1.7 | 3.5 | 0.00 | 0.43 | 0.43 | 93 | 1009.0 |
| 20260510024520 | 49 | 245 | 1.7 | 6.1 | 0.00 | 0.43 | 0.43 | 92 | 1009.1 |
| 20260510024031 | 49 | 243 | 1.7 | 7.0 | 0.00 | 0.43 | 0.43 | 92 | 1008.9 |
| 20260510023020 | 49 | 232 | 3.5 | 7.0 | 0.00 | 0.43 | 0.43 | 93 | 1009.0 |
| 20260510022520 | 49 | 232 | 4.3 | 6.1 | 0.00 | 0.43 | 0.43 | 93 | 1008.9 |
| 20260510022021 | 49 | 242 | 3.5 | 6.1 | 0.00 | 0.43 | 0.43 | 93 | 1009.0 |
| 20260510021521 | 49 | 234 | 2.6 | 6.1 | 0.00 | 0.43 | 0.43 | 93 | 1009.0 |
| 20260510021021 | 49 | 205 | 2.6 | 4.3 | 0.00 | 0.43 | 0.43 | 93 | 1009.0 |
| 20260510020532 | 49 | 260 | 2.6 | 4.3 | 0.00 | 0.43 | 0.43 | 93 | 1009.0 |
| 20260510020020 | 49 | 229 | 1.7 | 6.1 | 0.00 | 0.43 | 0.43 | 93 | 1009.2 |
| 20260510015532 | 49 | 205 | 1.7 | 6.1 | 0.00 | 0.43 | 0.43 | 93 | 1009.1 |
| 20260510015031 | 49 | 231 | 2.6 | 5.2 | 0.00 | 0.43 | 0.43 | 92 | 1009.0 |
| 20260510014532 | 49 | 220 | 2.6 | 4.3 | 0.00 | 0.43 | 0.43 | 92 | 1009.1 |
| 20260510014032 | 49 | 221 | 1.7 | 4.3 | 0.00 | 0.43 | 0.43 | 92 | 1008.9 |
| 20260510013520 | 49 | 255 | 1.7 | 3.5 | 0.00 | 0.43 | 0.43 | 92 | 1008.8 |
| 20260510013013 | 49 | 247 | 1.7 | 3.5 | 0.00 | 0.43 | 0.43 | 92 | 1008.8 |
| 20260510012512 | 49 | 212 | 0.0 | 0.9 | 0.00 | 0.43 | 0.43 | 91 | 1008.9 |
| 20260510012013 | 49 | 233 | 0.0 | 1.7 | 0.00 | 0.43 | 0.43 | 91 | 1008.8 |
| 20260510011513 | 49 | 246 | 0.9 | 1.7 | 0.00 | 0.43 | 0.43 | 91 | 1009.0 |
| 20260510011024 | 49 | 233 | 0.9 | 1.7 | 0.00 | 0.43 | 0.43 | 90 | 1008.9 |
| 20260510010512 | 49 | 221 | 0.9 | 0.9 | 0.00 | 0.43 | 0.43 | 91 | 1008.9 |
| 20260510010013 | 49 | 221 | 0.0 | 0.9 | 0.00 | 0.43 | 0.43 | 91 | 1008.6 |
| 20260510005512 | 49 | 221 | 0.0 | 0.0 | 0.00 | 0.43 | 0.43 | 90 | 1008.5 |
| 20260510005012 | 49 | 221 | 0.0 | 0.9 | 0.00 | 0.43 | 0.43 | 89 | 1008.6 |
| 20260510004512 | 50 | 221 | 0.0 | 0.9 | 0.00 | 0.43 | 0.43 | 89 | 1008.6 |
| 20260510004012 | 50 | 221 | 0.9 | 3.5 | 0.00 | 0.43 | 0.43 | 88 | 1008.7 |
| 20260510003512 | 51 | 222 | 1.7 | 6.1 | 0.00 | 0.43 | 0.43 | 87 | 1008.8 |
| 20260510003012 | 51 | 221 | 2.6 | 6.1 | 0.00 | 0.43 | 0.43 | 87 | 1008.7 |
| 20260510002512 | 51 | 249 | 2.6 | 6.1 | 0.00 | 0.43 | 0.43 | 87 | 1008.7 |
| 20260510002023 | 51 | 244 | 3.5 | 6.1 | 0.00 | 0.43 | 0.43 | 87 | 1008.6 |
| 20260510001512 | 51 | 252 | 2.6 | 5.2 | 0.00 | 0.43 | 0.43 | 87 | 1008.6 |
| 20260510001012 | 52 | 253 | 2.6 | 5.2 | 0.00 | 0.43 | 0.43 | 86 | 1008.5 |
| 20260510000513 | 52 | 236 | 1.7 | 4.3 | 0.00 | 0.43 | 0.43 | 86 | 1008.2 |
| 20260510000013 | 52 | 243 | 1.7 | 5.2 | 0.00 | 0.43 | 0.43 | 85 | 1008.2 |
| 20260509235524 | 53 | 217 | 2.6 | 6.1 | 0.00 | 0.43 | 0.43 | 85 | 1008.2 |
| 20260509235013 | 53 | 229 | 3.5 | 5.2 | 0.00 | 0.43 | 0.43 | 84 | 1008.1 |
| 20260509234513 | 53 | 255 | 1.7 | 3.5 | 0.00 | 0.43 | 0.43 | 83 | 1007.9 |
| 20260509234014 | 53 | 243 | 0.9 | 3.5 | 0.00 | 0.43 | 0.43 | 83 | 1008.0 |
| 20260509233513 | 54 | 236 | 1.7 | 6.1 | 0.00 | 0.43 | 0.43 | 82 | 1008.1 |
| 20260509233012 | 54 | 232 | 3.5 | 9.6 | 0.00 | 0.43 | 0.43 | 81 | 1007.9 |
| 20260509232535 | 54 | 231 | 3.5 | 9.6 | 0.00 | 0.43 | 0.43 | 80 | 1007.8 |
| 20260509232013 | 55 | 252 | 3.5 | 7.0 | 0.00 | 0.43 | 0.43 | 81 | 1007.8 |
| 20260509231513 | 54 | 255 | 3.5 | 7.0 | 0.00 | 0.43 | 0.43 | 81 | 1007.7 |
| 20260509231014 | 55 | 248 | 5.2 | 10.4 | 0.00 | 0.43 | 0.43 | 81 | 1007.6 |
| 20260509230513 | 55 | 262 | 4.3 | 7.8 | 0.00 | 0.43 | 0.43 | 82 | 1007.5 |
| 20260509230013 | 55 | 230 | 2.6 | 7.0 | 0.00 | 0.43 | 0.43 | 82 | 1007.5 |
| 20260509225524 | 54 | 240 | 3.5 | 9.6 | 0.00 | 0.43 | 0.43 | 82 | 1007.5 |
| 20260509225013 | 54 | 255 | 7.0 | 9.6 | 0.00 | 0.43 | 0.43 | 82 | 1007.6 |
| 20260509224512 | 54 | 230 | 5.2 | 12.2 | 0.00 | 0.43 | 0.43 | 83 | 1007.7 |
| 20260509224036 | 54 | 224 | 4.3 | 12.2 | 0.00 | 0.43 | 0.43 | 84 | 1007.7 |
| 20260509223513 | 54 | 219 | 5.2 | 9.6 | 0.00 | 0.43 | 0.43 | 85 | 1007.7 |
| 20260509223013 | 54 | 225 | 5.2 | 8.7 | 0.00 | 0.43 | 0.43 | 85 | 1007.6 |
| 20260509222513 | 54 | 223 | 4.3 | 7.8 | 0.00 | 0.43 | 0.43 | 86 | 1007.7 |
| 20260509222013 | 54 | 224 | 3.5 | 7.8 | 0.00 | 0.43 | 0.43 | 86 | 1007.7 |
| 20260509221524 | 54 | 205 | 5.2 | 8.7 | 0.00 | 0.43 | 0.43 | 86 | 1007.9 |
| 20260509221035 | 54 | 219 | 3.5 | 8.7 | 0.00 | 0.43 | 0.43 | 88 | 1007.9 |
| 20260509220513 | 53 | 239 | 5.2 | 10.4 | 0.00 | 0.43 | 0.43 | 89 | 1007.8 |
| 20260509220013 | 52 | 219 | 6.1 | 10.4 | 0.00 | 0.43 | 0.43 | 89 | 1008.0 |
| 20260509215513 | 52 | 211 | 3.5 | 7.0 | 0.00 | 0.43 | 0.43 | 90 | 1008.1 |
| 20260509215013 | 52 | 237 | 4.3 | 9.6 | 0.00 | 0.43 | 0.43 | 90 | 1008.1 |
| 20260509214513 | 52 | 240 | 5.2 | 9.6 | 0.00 | 0.43 | 0.43 | 90 | 1008.2 |
| 20260509214014 | 51 | 207 | 5.2 | 11.3 | 0.00 | 0.43 | 0.43 | 90 | 1008.2 |
| 20260509213514 | 51 | 243 | 4.3 | 11.3 | 0.00 | 0.43 | 0.43 | 90 | 1008.2 |
| 20260509213013 | 51 | 269 | 6.1 | 17.4 | 0.00 | 0.43 | 0.43 | 90 | 1008.2 |
| 20260509212524 | 51 | 252 | 7.0 | 17.4 | 0.00 | 0.43 | 0.43 | 90 | 1008.3 |
| 20260509212015 | 51 | 260 | 7.0 | 13.9 | 0.01 | 0.43 | 0.43 | 90 | 1008.3 |
| 20260509211525 | 51 | 213 | 5.2 | 15.6 | 0.01 | 0.43 | 0.43 | 90 | 1008.4 |
| 20260509211035 | 51 | 228 | 7.0 | 14.8 | 0.01 | 0.43 | 0.43 | 90 | 1008.3 |
| 20260509210514 | 51 | 236 | 7.8 | 12.2 | 0.01 | 0.43 | 0.43 | 90 | 1008.4 |
| 20260509210015 | 51 | 217 | 7.8 | 12.2 | 0.01 | 0.43 | 0.43 | 90 | 1008.3 |
| 20260509205524 | 51 | 232 | 7.0 | 12.2 | 0.01 | 0.43 | 0.43 | 91 | 1008.3 |
| 20260509205014 | 51 | 226 | 7.0 | 12.2 | 0.02 | 0.43 | 0.43 | 91 | 1008.3 |
| 20260509204513 | 51 | 233 | 6.1 | 13.0 | 0.03 | 0.43 | 0.43 | 91 | 1008.3 |
| 20260509204024 | 51 | 236 | 6.1 | 10.4 | 0.04 | 0.43 | 0.43 | 91 | 1008.3 |
| 20260509203513 | 51 | 225 | 3.5 | 7.0 | 0.05 | 0.43 | 0.43 | 92 | 1008.2 |
| 20260509203013 | 51 | 225 | 2.6 | 6.1 | 0.05 | 0.43 | 0.43 | 92 | 1008.3 |
| 20260509202513 | 50 | 248 | 4.3 | 10.4 | 0.06 | 0.43 | 0.43 | 91 | 1008.2 |
| 20260509202014 | 50 | 243 | 4.3 | 10.4 | 0.05 | 0.42 | 0.42 | 91 | 1008.3 |
| 20260509201514 | 50 | 256 | 6.1 | 10.4 | 0.06 | 0.42 | 0.42 | 91 | 1008.4 |
| 20260509201036 | 50 | 230 | 6.1 | 10.4 | 0.06 | 0.42 | 0.42 | 91 | 1008.4 |
| 20260509200548 | 49 | 259 | 4.3 | 10.4 | 0.07 | 0.42 | 0.42 | 91 | 1008.5 |
| 20260509200014 | 49 | 264 | 6.1 | 11.3 | 0.07 | 0.42 | 0.42 | 91 | 1008.6 |
| 20260509195514 | 49 | 212 | 5.2 | 13.9 | 0.08 | 0.42 | 0.42 | 92 | 1008.7 |
| 20260509195014 | 49 | 231 | 5.2 | 11.3 | 0.08 | 0.41 | 0.41 | 92 | 1008.7 |
| 20260509194515 | 50 | 230 | 7.0 | 13.0 | 0.07 | 0.40 | 0.40 | 92 | 1009.0 |
| 20260509194014 | 50 | 245 | 7.8 | 13.0 | 0.07 | 0.39 | 0.39 | 92 | 1008.9 |
| 20260509193514 | 50 | 186 | 7.0 | 16.5 | 0.07 | 0.38 | 0.38 | 92 | 1009.0 |
| 20260509193014 | 50 | 195 | 7.8 | 16.5 | 0.08 | 0.38 | 0.38 | 92 | 1009.1 |
| 20260509192526 | 50 | 266 | 6.1 | 13.0 | 0.07 | 0.37 | 0.37 | 92 | 1009.2 |
| 20260509192014 | 50 | 236 | 7.8 | 13.0 | 0.08 | 0.37 | 0.37 | 92 | 1009.1 |
| 20260509191515 | 50 | 226 | 7.0 | 12.2 | 0.08 | 0.36 | 0.36 | 92 | 1009.1 |
| 20260509191015 | 49 | 231 | 7.0 | 11.3 | 0.09 | 0.36 | 0.36 | 92 | 1009.2 |
| 20260509190515 | 49 | 218 | 5.2 | 11.3 | 0.09 | 0.35 | 0.35 | 92 | 1009.1 |
| 20260509190015 | 49 | 223 | 6.1 | 11.3 | 0.10 | 0.35 | 0.35 | 92 | 1009.3 |
| 20260509185515 | 49 | 232 | 5.2 | 11.3 | 0.10 | 0.34 | 0.34 | 93 | 1009.3 |
| 20260509185015 | 49 | 242 | 7.0 | 12.2 | 0.10 | 0.33 | 0.33 | 92 | 1009.3 |
| 20260509184548 | 49 | 278 | 7.0 | 12.2 | 0.11 | 0.33 | 0.33 | 92 | 1009.4 |
| 20260509184015 | 49 | 216 | 7.0 | 12.2 | 0.10 | 0.32 | 0.32 | 92 | 1009.5 |
| 20260509183515 | 49 | 257 | 7.0 | 12.2 | 0.09 | 0.31 | 0.31 | 92 | 1009.5 |
| 20260509183027 | 49 | 231 | 7.0 | 11.3 | 0.09 | 0.30 | 0.30 | 92 | 1009.5 |
| 20260509182515 | 49 | 240 | 6.1 | 12.2 | 0.10 | 0.30 | 0.30 | 92 | 1009.5 |
| 20260509182015 | 49 | 231 | 6.1 | 12.2 | 0.09 | 0.29 | 0.29 | 92 | 1009.5 |
| 20260509181515 | 49 | 222 | 7.0 | 12.2 | 0.08 | 0.28 | 0.28 | 92 | 1009.5 |
| 20260509181015 | 49 | 233 | 5.2 | 12.2 | 0.07 | 0.27 | 0.27 | 92 | 1009.5 |
| 20260509180515 | 49 | 236 | 7.0 | 12.2 | 0.07 | 0.26 | 0.26 | 92 | 1009.5 |
| 20260509180027 | 49 | 212 | 5.2 | 11.3 | 0.06 | 0.25 | 0.25 | 92 | 1009.4 |
| 20260509175515 | 50 | 236 | 6.1 | 11.3 | 0.05 | 0.29 | 0.24 | 92 | 1009.4 |
| 20260509175016 | 50 | 150 | 6.1 | 11.3 | 0.04 | 0.28 | 0.23 | 92 | 1009.4 |
| 20260509174516 | 50 | 225 | 6.1 | 9.6 | 0.03 | 0.27 | 0.22 | 92 | 1009.5 |
| 20260509174015 | 50 | 249 | 5.2 | 12.2 | 0.03 | 0.27 | 0.22 | 92 | 1009.2 |
| 20260509173516 | 50 | 210 | 6.1 | 12.2 | 0.04 | 0.27 | 0.22 | 92 | 1009.2 |
| 20260509173016 | 50 | 234 | 6.1 | 12.2 | 0.03 | 0.26 | 0.21 | 92 | 1009.3 |
| 20260509172515 | 50 | 236 | 4.3 | 12.2 | 0.03 | 0.25 | 0.20 | 92 | 1009.3 |
| 20260509172015 | 50 | 224 | 6.1 | 12.2 | 0.03 | 0.25 | 0.20 | 92 | 1009.3 |
| 20260509171516 | 50 | 229 | 5.2 | 9.6 | 0.03 | 0.25 | 0.20 | 92 | 1009.2 |
| 20260509171016 | 50 | 200 | 6.1 | 12.2 | 0.04 | 0.25 | 0.20 | 92 | 1009.2 |
| 20260509170516 | 50 | 211 | 8.7 | 15.6 | 0.03 | 0.24 | 0.19 | 91 | 1009.2 |
| 20260509170016 | 50 | 259 | 7.0 | 17.4 | 0.03 | 0.24 | 0.19 | 91 | 1009.3 |
| 20260509165515 | 50 | 230 | 5.2 | 14.8 | 0.03 | 0.24 | 0.19 | 92 | 1009.3 |
| 20260509165016 | 50 | 231 | 7.0 | 14.8 | 0.04 | 0.24 | 0.19 | 91 | 1009.3 |
| 20260509164515 | 50 | 232 | 6.1 | 12.2 | 0.04 | 0.24 | 0.19 | 91 | 1009.3 |
| 20260509164015 | 50 | 225 | 7.8 | 12.2 | 0.04 | 0.24 | 0.19 | 91 | 1009.3 |
| 20260509163527 | 50 | 219 | 5.2 | 12.2 | 0.03 | 0.23 | 0.18 | 91 | 1009.3 |
| 20260509163015 | 50 | 174 | 6.1 | 12.2 | 0.03 | 0.23 | 0.18 | 91 | 1009.3 |
| 20260509162516 | 50 | 259 | 5.2 | 9.6 | 0.02 | 0.22 | 0.17 | 91 | 1009.4 |
| 20260509162017 | 50 | 161 | 4.3 | 11.3 | 0.02 | 0.22 | 0.17 | 91 | 1009.3 |
| 20260509161517 | 50 | 220 | 6.1 | 11.3 | 0.03 | 0.22 | 0.17 | 91 | 1009.5 |
| 20260509161038 | 50 | 224 | 6.1 | 12.2 | 0.02 | 0.21 | 0.16 | 91 | 1009.5 |
| 20260509160515 | 50 | 174 | 5.2 | 12.2 | 0.02 | 0.21 | 0.16 | 91 | 1009.5 |
| 20260509160027 | 50 | 242 | 6.1 | 9.6 | 0.02 | 0.21 | 0.16 | 91 | 1009.7 |
| 20260509155526 | 50 | 233 | 4.3 | 9.6 | 0.02 | 0.21 | 0.16 | 91 | 1009.7 |
| 20260509155016 | 50 | 217 | 4.3 | 9.6 | 0.01 | 0.20 | 0.15 | 92 | 1009.6 |
| 20260509154516 | 50 | 186 | 0.9 | 7.0 | 0.01 | 0.20 | 0.15 | 92 | 1009.7 |
| 20260509154015 | 50 | 196 | 1.7 | 7.0 | 0.02 | 0.20 | 0.15 | 91 | 1009.6 |
| 20260509153528 | 50 | 231 | 2.6 | 5.2 | 0.02 | 0.20 | 0.15 | 91 | 1009.7 |
| 20260509153017 | 50 | 238 | 3.5 | 5.2 | 0.02 | 0.20 | 0.15 | 92 | 1009.8 |
| 20260509152516 | 50 | 237 | 2.6 | 4.3 | 0.02 | 0.20 | 0.15 | 92 | 1009.9 |
| 20260509152016 | 49 | 212 | 1.7 | 4.3 | 0.03 | 0.20 | 0.15 | 92 | 1009.7 |
| 20260509151527 | 49 | 142 | 1.7 | 5.2 | 0.02 | 0.19 | 0.14 | 92 | 1009.6 |
| 20260509151016 | 49 | 166 | 0.9 | 6.1 | 0.02 | 0.19 | 0.14 | 92 | 1009.6 |
| 20260509150527 | 49 | 156 | 2.6 | 6.1 | 0.02 | 0.19 | 0.14 | 93 | 1009.8 |
| 20260509150016 | 49 | 99 | 1.7 | 6.1 | 0.02 | 0.19 | 0.14 | 93 | 1010.1 |
| 20260509145538 | 49 | 231 | 2.6 | 7.8 | 0.02 | 0.19 | 0.14 | 93 | 1010.4 |
| 20260509145016 | 49 | 166 | 3.5 | 7.8 | 0.03 | 0.19 | 0.14 | 93 | 1010.4 |
| 20260509144516 | 49 | 148 | 4.3 | 7.8 | 0.02 | 0.18 | 0.13 | 93 | 1010.4 |
| 20260509144038 | 49 | 241 | 2.6 | 4.3 | 0.02 | 0.18 | 0.13 | 93 | 1010.4 |
| 20260509143527 | 49 | 200 | 1.7 | 3.5 | 0.02 | 0.18 | 0.13 | 93 | 1010.4 |
| 20260509143016 | 49 | 214 | 1.7 | 3.5 | 0.03 | 0.18 | 0.13 | 92 | 1010.2 |
| 20260509142516 | 49 | 219 | 0.0 | 1.7 | 0.03 | 0.18 | 0.13 | 93 | 1010.0 |
| 20260509142027 | 48 | 70 | 0.0 | 1.7 | 0.02 | 0.17 | 0.12 | 93 | 1010.0 |
| 20260509141516 | 48 | 138 | 0.0 | 5.2 | 0.02 | 0.17 | 0.12 | 92 | 1010.2 |
| 20260509141016 | 48 | 178 | 1.7 | 4.3 | 0.02 | 0.17 | 0.12 | 93 | 1010.1 |
| 20260509140527 | 48 | 136 | 0.9 | 3.5 | 0.03 | 0.17 | 0.12 | 93 | 1010.1 |
| 20260509140016 | 48 | 158 | 0.9 | 3.5 | 0.03 | 0.17 | 0.12 | 93 | 1010.0 |
| 20260509135528 | 48 | 220 | 0.9 | 2.6 | 0.03 | 0.17 | 0.12 | 93 | 1010.1 |
| 20260509135016 | 48 | 219 | 0.0 | 2.6 | 0.02 | 0.16 | 0.11 | 94 | 1010.0 |
| 20260509134516 | 48 | 191 | 0.9 | 2.6 | 0.03 | 0.16 | 0.11 | 95 | 1010.1 |
| 20260509134016 | 48 | 161 | 0.0 | 1.7 | 0.03 | 0.16 | 0.11 | 95 | 1010.0 |
| 20260509133516 | 47 | 77 | 0.0 | 1.7 | 0.03 | 0.16 | 0.11 | 95 | 1010.0 |
| 20260509133039 | 47 | 70 | 0.0 | 1.7 | 0.02 | 0.15 | 0.10 | 95 | 1010.0 |
| 20260509132516 | 47 | 68 | 0.0 | 1.7 | 0.02 | 0.15 | 0.10 | 95 | 1010.0 |
| 20260509132016 | 47 | 70 | 0.0 | 1.7 | 0.02 | 0.15 | 0.10 | 95 | 1009.9 |
| 20260509131527 | 47 | 70 | 0.9 | 2.6 | 0.02 | 0.15 | 0.10 | 95 | 1010.0 |
| 20260509131017 | 47 | 10 | 1.7 | 2.6 | 0.03 | 0.15 | 0.10 | 95 | 1009.9 |
| 20260509130527 | 47 | 30 | 0.9 | 1.7 | 0.02 | 0.14 | 0.09 | 95 | 1010.0 |
| 20260509130017 | 47 | 37 | 0.0 | 0.9 | 0.02 | 0.14 | 0.09 | 95 | 1010.1 |
| 20260509125517 | 47 | 58 | 0.0 | 3.5 | 0.02 | 0.14 | 0.09 | 95 | 1010.1 |
| 20260509125016 | 47 | 58 | 1.7 | 3.5 | 0.02 | 0.14 | 0.09 | 95 | 1009.9 |
| 20260509124518 | 47 | 56 | 0.0 | 1.7 | 0.01 | 0.13 | 0.08 | 95 | 1010.1 |
| 20260509124016 | 46 | 56 | 0.9 | 1.7 | 0.01 | 0.13 | 0.08 | 95 | 1009.9 |
| 20260509123516 | 46 | 49 | 0.9 | 1.7 | 0.01 | 0.13 | 0.08 | 95 | 1009.9 |
| 20260509123029 | 46 | 33 | 0.9 | 1.7 | 0.01 | 0.13 | 0.08 | 95 | 1010.0 |
| 20260509122516 | 46 | 33 | 0.0 | 1.7 | 0.01 | 0.13 | 0.08 | 95 | 1009.9 |
| 20260509122016 | 46 | 51 | 0.9 | 1.7 | 0.01 | 0.13 | 0.08 | 95 | 1010.0 |
| 20260509121517 | 46 | 55 | 0.9 | 0.9 | 0.00 | 0.12 | 0.07 | 95 | 1010.0 |
| 20260509121017 | 46 | 54 | 0.9 | 0.9 | 0.00 | 0.12 | 0.07 | 95 | 1010.1 |
| 20260509120516 | 46 | 55 | 0.9 | 1.7 | 0.00 | 0.12 | 0.07 | 95 | 1010.0 |
| 20260509120017 | 46 | 52 | 0.9 | 1.7 | 0.00 | 0.12 | 0.07 | 95 | 1010.0 |
| 20260509115517 | 46 | 62 | 0.9 | 1.7 | 0.01 | 0.12 | 0.07 | 95 | 1010.0 |
| 20260509115017 | 46 | 70 | 0.9 | 1.7 | 0.01 | 0.12 | 0.07 | 95 | 1010.2 |
| 20260509114516 | 45 | 65 | 0.9 | 1.7 | 0.01 | 0.12 | 0.07 | 95 | 1010.2 |
| 20260509114016 | 45 | 66 | 0.0 | 1.7 | 0.01 | 0.12 | 0.07 | 95 | 1010.2 |
| 20260509113517 | 45 | 67 | 0.9 | 1.7 | 0.01 | 0.12 | 0.07 | 95 | 1010.1 |
| 20260509113017 | 45 | 130 | 0.0 | 1.7 | 0.01 | 0.12 | 0.07 | 95 | 1010.2 |
| 20260509112517 | 45 | 175 | 0.9 | 1.7 | 0.01 | 0.12 | 0.07 | 95 | 1010.2 |
| 20260509112017 | 45 | 103 | 0.9 | 2.6 | 0.01 | 0.12 | 0.07 | 95 | 1010.3 |
| 20260509111517 | 45 | 59 | 0.0 | 2.6 | 0.01 | 0.12 | 0.07 | 95 | 1010.2 |
| 20260509111028 | 45 | 74 | 0.0 | 2.6 | 0.01 | 0.12 | 0.07 | 95 | 1010.1 |
| 20260509110517 | 45 | 76 | 1.7 | 2.6 | 0.01 | 0.12 | 0.07 | 95 | 1010.0 |
| 20260509110017 | 45 | 326 | 0.0 | 3.5 | 0.01 | 0.12 | 0.07 | 95 | 1010.2 |
| 20260509105517 | 45 | 38 | 2.6 | 3.5 | 0.00 | 0.11 | 0.06 | 95 | 1010.2 |
| 20260509105017 | 45 | 8 | 0.9 | 5.2 | 0.00 | 0.11 | 0.06 | 95 | 1010.1 |
| 20260509104518 | 45 | 60 | 2.6 | 5.2 | 0.00 | 0.11 | 0.06 | 95 | 1010.0 |
| 20260509104016 | 45 | 39 | 1.7 | 2.6 | 0.00 | 0.11 | 0.06 | 95 | 1010.2 |
| 20260509103517 | 45 | 24 | 0.9 | 1.7 | 0.00 | 0.11 | 0.06 | 95 | 1010.1 |
| 20260509103017 | 45 | 24 | 0.9 | 1.7 | 0.00 | 0.11 | 0.06 | 95 | 1010.2 |
| 20260509102517 | 45 | 24 | 0.0 | 0.9 | 0.00 | 0.11 | 0.06 | 94 | 1010.3 |
| 20260509102017 | 45 | 24 | 0.0 | 0.9 | 0.00 | 0.11 | 0.06 | 94 | 1010.3 |
| 20260509101517 | 45 | 24 | 0.0 | 0.9 | 0.00 | 0.11 | 0.06 | 94 | 1010.2 |
| 20260509101028 | 45 | 24 | 0.0 | 0.9 | 0.00 | 0.11 | 0.06 | 94 | 1010.2 |
| 20260509100517 | 45 | 24 | 0.0 | 0.9 | 0.00 | 0.11 | 0.06 | 94 | 1010.2 |
| 20260509100018 | 45 | 24 | 0.0 | 0.9 | 0.00 | 0.11 | 0.06 | 94 | 1010.0 |
| 20260509095517 | 45 | 24 | 0.0 | 1.7 | 0.00 | 0.12 | 0.06 | 94 | 1010.1 |
| 20260509095017 | 45 | 31 | 0.9 | 1.7 | 0.00 | 0.12 | 0.06 | 94 | 1010.0 |
| 20260509094528 | 45 | 31 | 0.9 | 1.7 | 0.00 | 0.12 | 0.06 | 93 | 1010.0 |
| 20260509094017 | 45 | 158 | 0.0 | 0.9 | 0.00 | 0.12 | 0.06 | 93 | 1009.9 |
| 20260509093518 | 45 | 158 | 0.0 | 0.9 | 0.00 | 0.12 | 0.06 | 93 | 1010.0 |
| 20260509093017 | 46 | 158 | 0.0 | 0.9 | 0.00 | 0.12 | 0.06 | 93 | 1010.1 |
| 20260509092530 | 46 | 158 | 0.0 | 1.7 | 0.00 | 0.12 | 0.06 | 93 | 1010.2 |
| 20260509092018 | 46 | 169 | 0.0 | 2.6 | 0.00 | 0.12 | 0.06 | 93 | 1010.2 |
| 20260509091530 | 46 | 120 | 0.9 | 2.6 | 0.00 | 0.12 | 0.06 | 93 | 1010.2 |
| 20260509091018 | 45 | 136 | 0.0 | 0.9 | 0.00 | 0.12 | 0.06 | 93 | 1010.2 |
| 20260509090518 | 45 | 222 | 0.0 | 0.9 | 0.00 | 0.12 | 0.06 | 93 | 1010.4 |
| 20260509090030 | 46 | 245 | 0.0 | 1.7 | 0.00 | 0.12 | 0.06 | 93 | 1010.5 |
| 20260509085518 | 46 | 247 | 0.0 | 1.7 | 0.00 | 0.12 | 0.06 | 93 | 1010.6 |
| 20260509085030 | 46 | 227 | 0.9 | 2.6 | 0.00 | 0.12 | 0.06 | 93 | 1010.7 |
| 20260509084519 | 46 | 236 | 0.9 | 2.6 | 0.00 | 0.12 | 0.06 | 93 | 1010.7 |
| 20260509084018 | 46 | 235 | 1.7 | 2.6 | 0.00 | 0.12 | 0.06 | 93 | 1010.7 |
| 20260509083530 | 45 | 229 | 0.9 | 3.5 | 0.00 | 0.12 | 0.06 | 93 | 1010.7 |
| 20260509083019 | 45 | 214 | 2.6 | 3.5 | 0.00 | 0.12 | 0.06 | 94 | 1010.7 |
| 20260509082519 | 45 | 250 | 0.9 | 1.7 | 0.00 | 0.12 | 0.06 | 94 | 1010.7 |
| 20260509082019 | 45 | 173 | 0.9 | 2.6 | 0.00 | 0.12 | 0.06 | 94 | 1010.7 |
| 20260509081519 | 45 | 227 | 1.7 | 2.6 | 0.00 | 0.12 | 0.06 | 94 | 1010.7 |
| 20260509081018 | 45 | 241 | 0.9 | 2.6 | 0.00 | 0.12 | 0.06 | 94 | 1010.5 |
| 20260509080520 | 45 | 242 | 1.7 | 2.6 | 0.00 | 0.12 | 0.06 | 95 | 1010.5 |
| 20260509080018 | 45 | 226 | 0.0 | 3.5 | 0.00 | 0.12 | 0.06 | 95 | 1010.6 |
| 20260509075518 | 45 | 226 | 0.9 | 1.7 | 0.00 | 0.12 | 0.06 | 94 | 1010.7 |
| 20260509075018 | 45 | 218 | 0.0 | 0.9 | 0.00 | 0.12 | 0.06 | 94 | 1010.7 |
| 20260509074518 | 45 | 218 | 0.0 | 1.7 | 0.00 | 0.12 | 0.06 | 94 | 1010.7 |
| 20260509074030 | 45 | 232 | 0.9 | 1.7 | 0.00 | 0.12 | 0.06 | 94 | 1010.6 |
| 20260509073518 | 45 | 207 | 0.9 | 0.9 | 0.00 | 0.12 | 0.06 | 94 | 1010.6 |
| 20260509073019 | 45 | 214 | 0.0 | 0.9 | 0.00 | 0.12 | 0.06 | 94 | 1010.5 |